Preview of NWS' New Version of Forecast
This preview is not operational and should not be used for support decisions.

Regional Weather Roundup (RWR)

Issued by National Weather Service (NWS)

                            
000
ASUS46 KSEW 212010
RWRWA 

WASHINGTON REGIONAL WEATHER ROUNDUP
NATIONAL WEATHER SERVICE SEATTLE WA
100 PM PDT SAT SEP 21 2019

NOTE:"FAIR" INDICATES FEW OR NO CLOUDS BELOW 12,000 FEET WITH NO 
SIGNIFICANT WEATHER AND/OR OBSTRUCTIONS TO VISIBILITY.

WAZ507-509-555>559-212100-
SEATTLE, TACOMA, EVERETT, AND VICINITY
  
CITY           SKY/WX    TMP DP  RH WIND       PRES   REMARKS
EVERETT        CLOUDY    61  55  81 W6        30.13F                  
BOEING FIELD     N/A     66  54  65 MISG      30.12                   
RENTON         MOSUNNY   67  53  61 CALM      30.11F                  
SEATAC AIRPORT MOSUNNY   65  53  65 S7        30.12F                  
JBLM-MCCHORD   CLOUDY    67  60  79 W7        30.12S                  
PUYALLUP       FAIR      70  54  56 CALM      30.12S                  
BREMERTON      CLOUDY    60  55  83 CALM      30.12                   
JBLM-FT LEWIS  PTSUNNY   67  61  83 W7        30.11F                  
TACOMA NARROWS CLOUDY    64  55  72 W6        30.12F                  
$$
 
WAZ001-503-506-510-514-515-212100-
NORTH INTERIOR
  
CITY           SKY/WX    TMP DP  RH WIND       PRES   REMARKS
BELLINGHAM     MOSUNNY   65  54  67 S9        30.10F                  
FRIDAY HARBOR  MOSUNNY   65  55  70 SE7       30.12S                  
EASTSOUND      PTSUNNY   64  54  68 S9        30.10S                  
PORT ANGELES   CLOUDY    61  53  75 VRB5      30.12S                  
EDIZ HOOK      CLOUDY    59  55  89 CALM      30.11S                  
PORT TOWNSEND  FAIR      64  57  77 E9        30.10S                  
NAS WHIDBEY    PTSUNNY   69  54  58 SE12      30.14F                  
ARLINGTON      CLOUDY    64  56  75 VRB5      30.12F                  
BURLINGTON     CLOUDY    68  57  68 S10       30.11F                  
$$
 
WAZ020-022-039-040-504-511-512-212100-
SOUTHWEST INTERIOR
  
CITY           SKY/WX    TMP DP  RH WIND       PRES   REMARKS
SHELTON        CLOUDY    66  55  67 SW7       30.09F                  
OLYMPIA        CLOUDY    65  54  67 S5        30.12F                  
CHEHALIS       CLOUDY    68  57  68 CALM      30.12F                  
KELSO          MOSUNNY   68  54  60 VRB5      30.13F                  
VANCOUVER      PTSUNNY   68  52  56 W7        30.12F                  
SCAPPOOSE, OR  CLOUDY    65  56  72 W3        30.12F                  
PORTLAND, OR   PTSUNNY   68  51  54 N6        30.12F                  
$$
 
WAZ021-516-517-212100-
WASHINGTON COAST
  
CITY           SKY/WX    TMP DP  RH WIND       PRES   REMARKS
FORKS          CLOUDY    64  58  80 S9        30.11S                  
HOQUIAM        CLOUDY    63  60  90 W6        30.12F                  
ASTORIA, OR    MOSUNNY   67  58  72 VRB5      30.10F                  
$$
 
WAZ019-023-024-040-567>569-212100-
CASCADE MOUNTAINS AND COLUMBIA GORGE
  
CITY           SKY/WX    TMP DP  RH WIND       PRES   REMARKS
STAMPEDE PASS  NOT AVBL                                               
TROUTDALE, OR  MOSUNNY   69  52  54 VRB3      30.12F                  
HOOD RIVER, OR CLEAR     70  50  49 NW8G17    30.07F                  
THE DALLES, OR SUNNY     73  52  47 VRB3      30.05F                  
$$

WAZ026-027-041>044-520-521-212100-
EAST SLOPES
  
CITY           SKY/WX    TMP DP  RH WIND       PRES   REMARKS
OMAK           SUNNY     68  45  43 S8        30.03F                  
WENATCHEE      SUNNY     70  45  40 E5        30.02F                  
ELLENSBURG     SUNNY     72  44  36 VRB3      30.05F                  
YAKIMA         SUNNY     72  43  35 SE9       30.04F                  
SUNNYSIDE ARPT CLEAR     71  49  44 NE5       30.04F                  
YAKIMA TC      FAIR      71  40  33 S8        30.03F                  
$$

WAZ028-034-035-212100-
COLUMBIA BASIN
  
CITY           SKY/WX    TMP DP  RH WIND       PRES   REMARKS
EPHRATA        SUNNY     72  45  37 S9        30.04F                  
MOSES LAKE     SUNNY     72  46  39 S10       30.05F                  
PASCO          SUNNY     74  46  36 S8        30.06F                  
RICHLAND ARPT  CLEAR     75  46  35 SW7       30.05                   
HERMISTON, OR  SUNNY     74  48  39 W7        30.06F                  
$$

WAZ036>038-212100-
NORTHEAST WASHINGTON
  
CITY           SKY/WX    TMP DP  RH WIND       PRES   REMARKS
SPOKANE GEIGER PTSUNNY   64  45  49 SW7       30.08F                  
SPOKANE FELTS  MOSUNNY   64  47  53 VRB3      30.08F                  
FAIRCHILD AFB  NOT AVBL                                               
COEURDALENE,ID PTSUNNY   62  48  60 SE6       30.10F                  
DEER PARK      MOSUNNY   60  47  61 S3        30.09F                  
$$

WAZ029>033-212100-
SOUTHEAST WASHINGTON
  
CITY           SKY/WX    TMP DP  RH WIND       PRES   REMARKS
PULLMAN        MOSUNNY   64  44  48 W10       30.11F                  
LEWISTON, ID   MOSUNNY   70  47  43 VRB6      30.08F                  
WALLA WALLA    SUNNY     70  47  43 S9        30.08F                  
PENDLETON, OR  SUNNY     71  45  39 W13G20    30.08F                  
$$